Flag for U.S.A. Weather past 2 weeks in Spokane, Washington, U.S.A.

Now
51 °F

Mostly cloudy.


Feels Like: 51 °F
Forecast: 45 / 64 °F
Wind: No wind

Location: Felts Field

Current Time: Oct 24, 2014 at 9:27:34 PM

Latest Report: Oct 24, 2014 at 8:53 PM


Visibility: 10 mi

Pressure: 30.00 "Hg

Humidity: 74%

Dew point: 43 °F

Location of SpokaneLocation

Historic Weather in Spokane — Graph

°F

Spokane temperature yesterday

Maximum temperature yesterday: 59 °F (at 1:53 AM)
Minimum temperature yesterday: 48 °F (at 11:53 PM)
Average temperature yesterday: 54 °F

Past Weeks' High & Low Weather Summary

 TemperatureHumidityPressure
High75 °F (Oct 10, 2:53 PM)93% (Oct 15, 4:53 AM)30.21 "Hg (Oct 15, 4:53 AM)
Low39 °F (Oct 17, 3:53 AM)18% (Oct 13, 3:53 PM)29.55 "Hg (Oct 15, 4:53 AM)
Average54 °F66%29.92 "Hg
* Reported Oct 9 7:53 PM — Oct 24 7:53 PM, Spokane, Weather by CustomWeather, © 2014

Note: Actual official high and low records may vary slightly from our data, if they occured in-between our weather recording intervals... More about our weather records

Advertising

Spokane weather history for previous 24 hours

 ConditionsComfort  
Time TempWeatherWind HumidityBarometerVisibility
7:53 PM
Oct 24
52 °FMostly cloudy.3 mph72%30.01 "Hg10 mi
6:53 PM53 °FOvercast.6 mph69%30.02 "Hg10 mi
5:53 PM53 °FPartly sunny.3 mph69%30.02 "Hg10 mi
4:53 PM54 °FScattered clouds.3 mph69%30.04 "Hg10 mi
3:53 PM56 °FScattered clouds.6 mph65%30.06 "Hg10 mi
2:53 PM57 °FScattered clouds.No wind58%30.06 "Hg10 mi
1:53 PM56 °FSunny.3 mph60%30.07 "Hg10 mi
12:53 PM56 °FScattered clouds.No wind60%30.08 "Hg10 mi
11:53 AM54 °FPassing clouds.No wind64%30.10 "Hg10 mi
10:53 AM51 °FPassing clouds.3 mph71%30.11 "Hg10 mi
9:53 AM49 °FPassing clouds.3 mph77%30.11 "Hg10 mi
8:53 AM46 °FSunny.No wind83%30.11 "Hg10 mi
7:53 AM46 °FPassing clouds.3 mph83%30.09 "Hg10 mi
6:53 AM45 °FPassing clouds.3 mph86%30.08 "Hg10 mi
5:53 AM44 °FPassing clouds.3 mph85%30.06 "Hg10 mi
4:53 AM45 °FClear.3 mph82%30.06 "Hg10 mi
3:53 AM44 °FPassing clouds.3 mph85%30.05 "Hg10 mi
2:53 AM46 °FClear.6 mph79%30.04 "Hg10 mi
1:53 AM47 °FClear.No wind80%30.03 "Hg10 mi
12:53 AM48 °FClear.9 mph80%30.01 "Hg10 mi
11:53 PM
Oct 23
48 °FPassing clouds.9 mph83%29.99 "Hg10 mi
10:53 PM49 °FPassing clouds.6 mph80%29.97 "Hg10 mi
9:53 PM50 °FPassing clouds.7 mph83%29.96 "Hg10 mi
Weather by CustomWeather, © 2014

See weather overviewHow to use our weather pages